This is the latest recevied weather packets stored in our database for station/object KD2RHT-13. If no packets are shown the sender has not sent any weather packets the latest 10 day(s).
| Time | Temp. | Humidity | Pressure | Rain* | Wind** | Luminosity | Snow |
|---|---|---|---|---|---|---|---|
| 1777771078 | 4.44° C | 85% | 1016.6 hPa | 0 mm | - | 0 W/m² | - |
| 1777770775 | 4.44° C | 84% | 1016.6 hPa | 0 mm | - | 0 W/m² | - |
| 1777770471 | 5° C | 84% | 1016.2 hPa | 0 mm | - | 0 W/m² | - |
| 1777770169 | 5° C | 83% | 1016.2 hPa | 0 mm | - | 0 W/m² | - |
| 1777769866 | 5° C | 83% | 1016.2 hPa | 0 mm | - | 0 W/m² | - |
| 1777769563 | 5° C | 82% | 1016.6 hPa | 0 mm | - | 0 W/m² | - |
| 1777769259 | 5° C | 82% | 1015.9 hPa | 0 mm | - | 0 W/m² | - |
| 1777768957 | 5° C | 81% | 1015.9 hPa | 0 mm | - | 0 W/m² | - |
| 1777768655 | 5° C | 81% | 1016.2 hPa | 0 mm | - | 0 W/m² | - |
| 1777768351 | 5° C | 80% | 1015.9 hPa | 0 mm | - | 0 W/m² | - |
| 1777768048 | 5.56° C | 80% | 1015.9 hPa | 0 mm | - | 0 W/m² | - |
| 1777767745 | 5.56° C | 79% | 1015.9 hPa | 0 mm | - | 0 W/m² | - |
| 1777767441 | 5.56° C | 79% | 1015.9 hPa | 0 mm | - | 0 W/m² | - |
| 1777767137 | 5.56° C | 79% | 1015.9 hPa | 0 mm | - | 0 W/m² | - |
| 1777766835 | 5.56° C | 78% | 1015.9 hPa | 0 mm | - | 1 W/m² | - |
| 1777766533 | 5.56° C | 78% | 1015.9 hPa | 0 mm | - | 3 W/m² | - |
| 1777766229 | 5.56° C | 77% | 1015.9 hPa | 0 mm | - | 6 W/m² | - |
| 1777765928 | 5.56° C | 76% | 1015.9 hPa | 0 mm | - | 8 W/m² | - |
| 1777765623 | 6.11° C | 75% | 1015.6 hPa | 0 mm | - | 10 W/m² | - |
| 1777765320 | 6.11° C | 74% | 1015.6 hPa | 0 mm | - | 12 W/m² | - |
| 1777765016 | 6.11° C | 73% | 1015.6 hPa | 0 mm | - | 17 W/m² | - |
| 1777764713 | 6.11° C | 73% | 1015.6 hPa | 0 mm | - | 21 W/m² | - |
| 1777764409 | 6.67° C | 72% | 1015.9 hPa | 0 mm | - | 27 W/m² | - |
| 1777764107 | 6.67° C | 71% | 1015.6 hPa | 0 mm | - | 34 W/m² | - |
| 1777763803 | 6.67° C | 71% | 1015.9 hPa | 0 mm | - | 43 W/m² | - |
* Rain latest hour (hover to see other rain measurements)
** Current wind speed in m/s (hover to see current wind gust speed)